[[{"header":{"parameterUnit":"m.s-1","parameterCategory":1,"la1":30.2991,"la2":30.254,"lo1":-89.0895,"lo2":-89.0444,"dy":0.0017,"dx":0.0017,"nx":28,"ny":28,"refTime":"2024-04-22T21:00:00:Z","depth":0,"parameterNumber":2,"parameterNumberName":"U-component_of_WINDS"},"data":[0,0,0,0,0,0,0,0,0,0,0,0,0,0,0,0,0,0,0,0,0,0,0,0,0,0,0,0,0,0,0,0,0,0,0,0,0,0,0,0,0,0,0,0,0,0,0,0,0,0,0,0,0,0,0,0,0,0,-0.2237,-0.2236,0,-0.2113,-0.2112,-0.2111,-0.2062,-0.2063,-0.2063,-0.2063,-0.1935,-0.1931,-0.1928,0,0,0,0,0,0,0,0,0,0,0,0,0,-0.2432,-0.2428,-0.2237,-0.2236,-0.2234,-0.2114,-0.2112,-0.211,-0.2062,-0.2063,-0.2063,-0.2064,-0.1936,-0.1932,-0.1927,0,0,0,0,0,0,0,0,0,0,0,0,0,-0.2331,-0.2427,-0.2237,-0.2196,-0.2191,-0.2114,-0.2112,-0.211,-0.2062,-0.2063,-0.2063,-0.2064,-0.1938,-0.1932,-0.1927,-0.1882,0,0,-0.1909,-0.1907,0,0,0,0,0,0,0,0,-0.2337,-0.2324,-0.2203,-0.2198,-0.2193,-0.2104,-0.2133,-0.2033,-0.2062,-0.2111,-0.2063,-0.2064,-0.1991,-0.1981,-0.1956,-0.1876,-0.187,-0.1909,-0.1905,-0.1903,-0.1901,0,0,0,0,0,0,0,-0.2344,-0.2329,-0.2188,-0.2202,-0.2195,-0.2183,-0.2169,-0.2114,-0.2049,-0.2107,-0.2103,-0.2089,-0.1988,-0.1962,-0.1953,-0.1868,-0.1909,-0.1904,-0.1901,-0.1898,-0.1746,-0.1745,0,0,0,0,0,0,-0.2358,-0.2335,-0.2192,-0.2184,-0.2268,-0.2179,-0.2164,-0.2132,-0.205,-0.2038,-0.2089,-0.2087,-0.1971,-0.1959,-0.1948,-0.1891,-0.1903,-0.1898,-0.1895,-0.1747,-0.1746,-0.1745,0,0,0,0,0,0,-0.2363,-0.2346,-0.2197,-0.2259,-0.2239,-0.2175,-0.214,-0.2129,-0.2103,-0.2036,-0.2024,-0.2074,-0.1971,-0.1956,-0.1899,-0.1885,-0.1895,-0.189,-0.1747,-0.1746,-0.1745,-0.1775,0,0,0,0,0,0,-0.2368,-0.2348,-0.233,-0.2259,-0.2236,-0.215,-0.2139,-0.2126,-0.2094,-0.2091,-0.2019,-0.2008,-0.197,-0.1908,-0.1893,-0.1878,-0.1886,-0.1748,-0.1747,-0.1746,-0.1775,-0.1775,-0.1775,0,0,0,0,0,-0.2375,-0.2342,-0.2329,-0.2312,-0.2212,-0.2149,-0.2136,-0.2094,-0.2093,-0.2074,-0.2032,-0.201,-0.189,-0.1902,-0.1886,-0.1868,-0.1749,-0.1747,-0.1746,-0.1775,-0.1775,-0.1775,0,0,0,0,0,0,-0.2412,-0.2332,-0.2317,-0.226,-0.2212,-0.2141,-0.2116,-0.2095,-0.2046,-0.2045,-0.1995,-0.1979,-0.1926,-0.1892,-0.1907,-0.1821,-0.1818,-0.1813,-0.1846,-0.1845,-0.1846,-0.1854,-0.1881,0,0,0,0,0,-0.2414,-0.237,-0.2302,-0.2258,-0.2235,-0.218,-0.2151,-0.2123,-0.2071,-0.205,-0.2004,-0.1954,-0.1905,-0.1873,-0.1824,-0.1771,-0.1755,-0.1751,-0.1751,-0.1751,-0.1747,-0.1718,-0.1715,-0.174,-0.174,-0.174,0,0,-0.2416,-0.2367,-0.2342,-0.2265,-0.2224,-0.2179,-0.2163,-0.2116,-0.2083,-0.2043,-0.1986,-0.1951,-0.1892,-0.1837,-0.181,-0.1806,-0.1738,-0.175,-0.175,-0.1746,-0.1716,-0.1713,-0.1711,-0.1739,-0.1739,-0.1739,0,0,-0.2398,-0.2356,-0.2316,-0.2276,-0.2216,-0.218,-0.2171,-0.2104,-0.2079,-0.2021,-0.1991,-0.1951,-0.1867,-0.1827,-0.1795,-0.1765,-0.1743,-0.175,-0.1751,-0.1722,-0.172,-0.1718,-0.1708,-0.1704,-0.1747,-0.1747,-0.1747,0,-0.2408,-0.234,-0.2297,-0.2253,-0.222,-0.2183,-0.2142,-0.2106,-0.2032,-0.201,-0.2008,-0.1903,-0.1861,-0.1796,-0.1789,-0.1765,-0.1753,-0.1757,-0.1724,-0.1722,-0.1719,-0.1708,-0.1705,-0.1748,-0.1748,-0.1748,-0.1748,0,-0.2356,-0.2309,-0.2284,-0.2215,-0.218,-0.2137,-0.2088,-0.2057,-0.2033,-0.1998,-0.1941,-0.1889,-0.183,-0.1813,-0.1788,-0.1745,-0.1745,-0.1734,-0.1729,-0.1719,-0.1708,-0.1703,-0.175,-0.1749,-0.1749,-0.1749,0,0,-0.2355,-0.2265,-0.2256,-0.2225,-0.2157,-0.212,-0.2077,-0.202,-0.1994,-0.1946,-0.1908,-0.184,-0.183,-0.1794,-0.1765,-0.174,-0.172,-0.1732,-0.173,-0.1732,-0.167,-0.1678,-0.1674,-0.1706,-0.1705,-0.1704,-0.1675,0,-0.2327,-0.2247,-0.2209,-0.2146,-0.2103,-0.2069,-0.2031,-0.1986,-0.1952,-0.1911,-0.1874,-0.1826,-0.1816,-0.1795,-0.1769,-0.1728,-0.1707,-0.173,-0.167,-0.1669,-0.1685,-0.1668,-0.1676,-0.1651,-0.1671,-0.167,-0.1669,0,-0.2283,-0.2236,-0.217,-0.2108,-0.2089,-0.2055,-0.2001,-0.1962,-0.191,-0.1887,-0.1849,-0.1822,-0.1775,-0.1775,-0.171,-0.1727,-0.17,-0.1677,-0.1675,-0.1667,-0.1668,-0.166,-0.1642,-0.1638,-0.1662,-0.1663,-0.1663,0,-0.229,-0.2209,-0.2159,-0.2134,-0.2061,-0.2038,-0.2007,-0.1956,-0.1925,-0.1877,-0.1857,-0.1804,-0.1776,-0.1736,-0.1695,-0.1699,-0.1635,-0.1631,-0.1615,-0.1616,-0.1601,-0.1602,-0.1579,-0.1586,-0.1586,-0.1586,-0.1586,0,-0.2262,-0.2222,-0.2161,-0.213,-0.2085,-0.2042,-0.1999,-0.1965,-0.192,-0.1883,-0.1851,-0.1816,-0.1764,-0.1723,-0.1691,-0.1643,-0.163,-0.1611,-0.1602,-0.1613,-0.1616,-0.1594,-0.1595,-0.1585,-0.1585,-0.1585,-0.1585,0,-0.226,-0.2218,-0.2161,-0.2098,-0.2081,-0.2051,-0.1996,-0.1965,-0.1931,-0.1884,-0.1871,-0.1817,-0.1767,-0.1723,-0.1657,-0.1636,-0.1586,-0.1576,-0.1604,-0.1599,-0.1585,-0.1587,-0.1546,-0.1539,-0.1552,-0.1552,-0.1552,0,-0.2245,-0.2214,-0.2148,-0.2121,-0.209,-0.2047,-0.2015,-0.1972,-0.1941,-0.1881,-0.1858,-0.1806,-0.1762,-0.1684,-0.1639,-0.1589,-0.1578,-0.1567,-0.157,-0.1582,-0.1577,-0.1579,-0.1576,-0.1567,-0.1567,-0.1567,-0.1567,0,-0.2223,-0.2204,-0.216,-0.2109,-0.2073,-0.2031,-0.1987,-0.1967,-0.1916,-0.1883,-0.1832,-0.1799,-0.1732,-0.1681,-0.1627,-0.1594,-0.1572,-0.1567,-0.156,-0.157,-0.1587,-0.1578,-0.1604,-0.1567,-0.1567,-0.1567,-0.1567,-0.1567,-0.2213,-0.2185,-0.2134,-0.2087,-0.205,-0.2011,-0.198,-0.1943,-0.19,-0.1843,-0.182,-0.1769,-0.172,-0.1644,-0.1612,-0.1572,-0.1568,-0.1558,-0.1556,-0.1554,-0.1556,-0.1595,-0.1562,-0.1562,-0.1561,-0.1561,-0.1561,0,-0.2189,-0.2156,-0.2113,-0.2054,-0.2017,-0.2001,-0.1953,-0.1923,-0.1879,-0.1835,-0.1793,-0.1736,-0.1687,-0.164,-0.1589,-0.1565,-0.1554,-0.1553,-0.1554,-0.1547,-0.1562,-0.1573,-0.1563,-0.1563,-0.1563,-0.1563,-0.1563,-0.1563,-0.2172,-0.2123,-0.2099,-0.2032,-0.1999,-0.1949,-0.1923,-0.1887,-0.1852,-0.179,-0.1749,-0.1719,-0.1674,-0.162,-0.1575,-0.1562,-0.1544,-0.1547,-0.1531,-0.1546,-0.1546,-0.1546,-0.1556,-0.1543,-0.1543,-0.1519,-0.1519,-0.1519]},{"header":{"parameterUnit":"m.s-1","parameterCategory":1,"la1":30.2991,"la2":30.254,"lo1":-89.0895,"lo2":-89.0444,"dy":0.0017,"dx":0.0017,"nx":28,"ny":28,"refTime":"2024-04-22T21:00:00:Z","depth":0,"parameterNumber":3,"parameterNumberName":"V-component_of_WINDS"},"data":[0,0,0,0,0,0,0,0,0,0,0,0,0,0,0,0,0,0,0,0,0,0,0,0,0,0,0,0,0,0,0,0,0,0,0,0,0,0,0,0,0,0,0,0,0,0,0,0,0,0,0,0,0,0,0,0,0,0,1.9327,1.9326,0,1.9276,1.9276,1.9275,1.9304,1.9305,1.9307,1.9308,1.9251,1.9249,1.9246,0,0,0,0,0,0,0,0,0,0,0,0,0,1.9443,1.9441,1.9327,1.9326,1.9325,1.9276,1.9275,1.9275,1.9304,1.9305,1.9307,1.9309,1.9252,1.9249,1.9246,0,0,0,0,0,0,0,0,0,0,0,0,0,1.9392,1.944,1.9327,1.9334,1.9334,1.9276,1.9275,1.9275,1.9303,1.9305,1.9308,1.931,1.9253,1.9249,1.9245,1.9176,0,0,1.9232,1.923,0,0,0,0,0,0,0,0,1.9395,1.9388,1.9334,1.9333,1.9334,1.9299,1.9296,1.9241,1.9303,1.9315,1.9308,1.9311,1.9265,1.926,1.9246,1.9173,1.9171,1.9232,1.9229,1.9227,1.9226,0,0,0,0,0,0,0,1.9399,1.939,1.9307,1.9333,1.9333,1.9338,1.9333,1.9286,1.9278,1.9314,1.9316,1.931,1.9265,1.925,1.9245,1.917,1.9232,1.9228,1.9225,1.9224,1.9036,1.9034,0,0,0,0,0,0,1.9402,1.9393,1.9308,1.9305,1.937,1.9334,1.9329,1.9308,1.9279,1.9277,1.9308,1.9311,1.9256,1.9249,1.9243,1.9158,1.9227,1.9223,1.9221,1.9038,1.9035,1.9033,0,0,0,0,0,0,1.9405,1.9394,1.931,1.935,1.9339,1.933,1.9306,1.9305,1.929,1.9275,1.9273,1.9294,1.9257,1.9249,1.9192,1.9157,1.9221,1.9218,1.9041,1.9037,1.9034,1.8989,0,0,0,0,0,0,1.9408,1.9395,1.937,1.9349,1.9337,1.9262,1.9304,1.9303,1.9283,1.9287,1.9261,1.9258,1.9258,1.9198,1.9188,1.9152,1.9214,1.9044,1.9039,1.9035,1.8994,1.8985,1.8977,0,0,0,0,0,1.9412,1.9359,1.9369,1.9358,1.9306,1.926,1.9253,1.9256,1.928,1.9254,1.9244,1.9259,1.9163,1.9192,1.9181,1.9143,1.9046,1.9041,1.9036,1.8998,1.8986,1.8977,0,0,0,0,0,0,1.9374,1.9356,1.9367,1.9306,1.9284,1.9265,1.9232,1.9244,1.9214,1.9218,1.9221,1.9215,1.9156,1.9144,1.9178,1.9073,1.9108,1.91,1.9083,1.9072,1.9064,1.9067,1.9211,0,0,0,0,0,1.9359,1.9325,1.9311,1.9258,1.9247,1.9241,1.9221,1.9225,1.9202,1.9193,1.9179,1.9155,1.9119,1.9095,1.9062,1.8993,1.8986,1.8961,1.8952,1.8945,1.8938,1.8899,1.8887,1.9015,1.9015,1.9015,0,0,1.9327,1.9313,1.9291,1.925,1.9234,1.9196,1.9233,1.9193,1.9164,1.9186,1.9132,1.9121,1.9094,1.9031,1.9002,1.9019,1.8901,1.8938,1.8933,1.8929,1.8892,1.888,1.8869,1.9011,1.9012,1.9012,0,0,1.9249,1.9236,1.919,1.9173,1.9149,1.9145,1.9134,1.9113,1.9107,1.9053,1.9068,1.9034,1.8973,1.8952,1.8934,1.8848,1.886,1.8837,1.8791,1.8753,1.8743,1.8734,1.8701,1.869,1.883,1.883,1.8829,0,1.9211,1.9158,1.9164,1.9122,1.9103,1.9123,1.9074,1.9058,1.9023,1.9008,1.9028,1.8951,1.8934,1.8865,1.8844,1.883,1.8815,1.8839,1.8744,1.8735,1.8727,1.8696,1.8684,1.8827,1.8827,1.8827,1.8828,0,1.9112,1.9074,1.904,1.9007,1.8984,1.8939,1.8936,1.8912,1.8918,1.8911,1.8855,1.8836,1.8798,1.8783,1.8788,1.8714,1.8725,1.8744,1.8779,1.8712,1.8682,1.8671,1.8823,1.8824,1.8825,1.8825,0,0,1.9008,1.8979,1.8966,1.8951,1.8926,1.8896,1.8851,1.8816,1.8793,1.8769,1.873,1.8677,1.8695,1.8674,1.8677,1.8644,1.8574,1.8667,1.8666,1.8649,1.849,1.8474,1.846,1.8583,1.8581,1.8579,1.8491,0,1.8927,1.8851,1.8855,1.8782,1.8746,1.8765,1.8725,1.8704,1.8697,1.8664,1.8656,1.8618,1.8645,1.8633,1.8601,1.859,1.8542,1.8596,1.8545,1.8543,1.8549,1.8446,1.8429,1.8347,1.848,1.8478,1.8477,0,1.8822,1.8795,1.8719,1.8698,1.8683,1.8648,1.8615,1.8585,1.856,1.8557,1.8534,1.8542,1.8495,1.8532,1.8465,1.8502,1.8481,1.8472,1.8469,1.8463,1.8505,1.8435,1.8322,1.8309,1.8459,1.8461,1.8462,0,1.8752,1.8696,1.8644,1.863,1.8605,1.8579,1.8567,1.8546,1.8523,1.8494,1.8479,1.8444,1.8425,1.8397,1.8394,1.8422,1.8326,1.8364,1.8321,1.8321,1.8299,1.83,1.8179,1.8288,1.8288,1.8288,1.8289,0,1.866,1.8612,1.8611,1.8579,1.8525,1.853,1.8476,1.8467,1.8447,1.8411,1.8425,1.839,1.839,1.8355,1.8352,1.8296,1.8288,1.8283,1.8282,1.828,1.8281,1.8266,1.8271,1.8285,1.8286,1.8287,1.8287,0,1.8572,1.857,1.8513,1.8494,1.8488,1.8449,1.8432,1.84,1.8394,1.8348,1.8338,1.8328,1.8287,1.8283,1.8234,1.8233,1.8165,1.8171,1.8173,1.8174,1.813,1.8134,1.7994,1.7975,1.8098,1.8097,1.8096,0,1.8513,1.8477,1.8454,1.8432,1.8418,1.8382,1.836,1.8363,1.8339,1.8308,1.8279,1.824,1.8208,1.8141,1.8129,1.8091,1.8096,1.8049,1.809,1.8089,1.8093,1.8095,1.809,1.8041,1.804,1.8039,1.8038,0,1.8407,1.8408,1.8376,1.8344,1.8317,1.8291,1.8267,1.8248,1.8247,1.8219,1.8178,1.8153,1.8105,1.8064,1.8028,1.8013,1.8024,1.8025,1.8013,1.801,1.8012,1.8009,1.815,1.8028,1.8029,1.803,1.803,1.8031,1.833,1.8299,1.8278,1.8242,1.8224,1.8201,1.817,1.816,1.8127,1.8088,1.8091,1.8045,1.802,1.7973,1.7955,1.7918,1.7933,1.7916,1.7911,1.7906,1.7901,1.8019,1.7912,1.7912,1.7912,1.7912,1.7912,0,1.8224,1.8212,1.8179,1.8145,1.8116,1.8131,1.8105,1.8079,1.8039,1.8016,1.7985,1.7937,1.7898,1.7882,1.7844,1.7817,1.782,1.7806,1.7807,1.7803,1.7891,1.7905,1.7803,1.7803,1.7803,1.7804,1.7804,1.7804,1.8166,1.8113,1.811,1.8048,1.8035,1.7992,1.7975,1.7953,1.7935,1.7881,1.7849,1.784,1.7819,1.7779,1.7743,1.7739,1.7724,1.7707,1.7705,1.7786,1.7797,1.7808,1.7821,1.7704,1.7703,1.762,1.762,1.7619]}]]